Location: Grand Rapids
(42.9630°N, 85.6680°W)
Time: 17:01:44
(UTC-04:00)

ISS - Visible Passes

Search period start: 15 July 2024 00:00
Search period end: 25 July 2024 00:00
Orbit: 410 x 424 km, 51.6° (Epoch: 15 July)

Date Brightness Start Highest point End Pass type
(mag) Time Alt. Az. Time Alt. Az. Time Alt. Az.
15 Jul -1.3 00:51:47 10° NW 00:54:26 21° NNE 00:55:54 16° NE visible
15 Jul -1.0 02:28:17 10° NW 02:28:45 13° NW 02:28:45 13° NW visible
15 Jul -1.2 22:25:41 10° WNW 22:28:21 22° NNW 22:31:02 10° NE visible
16 Jul -1.1 00:03:28 10° NW 00:05:56 19° N 00:08:25 10° NE visible
16 Jul -1.5 01:40:03 10° NW 01:41:35 23° NW 01:41:35 23° NW visible
16 Jul -1.0 23:14:58 10° NW 23:17:21 18° N 23:19:44 10° NE visible
17 Jul -2.0 00:51:46 10° NW 00:54:28 31° N 00:54:28 31° N visible
17 Jul -1.0 22:26:18 10° NW 22:28:41 18° N 22:31:06 10° NE visible
18 Jul -1.7 00:03:24 10° NW 00:06:14 25° NNE 00:07:23 21° NE visible
18 Jul -0.8 01:39:55 10° WNW 01:40:15 12° WNW 01:40:15 12° WNW visible
18 Jul -1.4 23:14:56 10° NW 23:17:32 21° NNE 23:20:10 10° ENE visible
19 Jul -1.8 00:51:26 10° NW 00:53:09 28° NW 00:53:09 28° NW visible
19 Jul -1.2 22:26:19 10° NW 22:28:46 19° N 22:31:13 10° NE visible
20 Jul -2.8 00:02:55 10° NW 00:06:03 43° NNE 00:06:03 43° NNE visible
20 Jul -2.2 23:14:21 10° NW 23:17:21 31° NNE 23:18:55 20° ENE visible
21 Jul -1.2 00:50:59 10° WNW 00:51:47 16° WNW 00:51:47 16° WNW visible
21 Jul -1.8 22:25:42 10° NW 22:28:29 24° NNE 22:31:16 10° ENE visible
22 Jul -2.8 00:02:12 10° WNW 00:04:37 45° WNW 00:04:37 45° WNW visible
22 Jul -3.5 23:13:25 10° NW 23:16:43 61° NNE 23:17:27 46° E visible
23 Jul -2.8 22:24:38 10° NW 22:27:48 40° NNE 22:30:14 15° E visible
24 Jul -1.8 00:01:29 10° WNW 00:03:05 22° W 00:03:05 22° W visible
24 Jul -3.6 23:12:22 10° WNW 23:15:36 52° SW 23:15:52 51° SSW visible
